Regional Weather Roundup
Issued by NWS Newport/Morehead, NC

Current Version | Previous Version | Text Only | Print | Product List | Glossary On
Versions: 1 2 3 4 5 6 7 8 9 10 11 12 13 14 15 16 17 18 19 20 21 22 23 24 25 26 27 28 29 30 31 32 33 34 35 36 37 38 39 40 41 42 43 44 45 46 47 48 49 50
000
ASUS42 KMHX 240414
RWRMHX
WEATHER ROUNDUP FOR EASTERN NORTH CAROLINA
NATIONAL WEATHER SERVICE NEWPORT/MOREHEAD CITY NC
1200 AM EDT WED MAY 24 2017

NOTE: "FAIR" INDICATES FEW OR NO CLOUDS BELOW 12,000 FEET
WITH NO SIGNIFICANT WEATHER AND/OR OBSTRUCTIONS TO VISIBILITY

NCZ015>017-031-032-045>047-102-103-240500-
NORTH COAST

CITY           SKY/WX    TMP DP  RH WIND       PRES   REMARKS
EDENTON        CLOUDY    71  68  89 CALM      29.68R
ELIZABETH CITY CLOUDY    65  65 100 NW5       29.66S
KITTY HAWK     LGT RAIN  70  70 100 CALM      29.66R
MANTEO         DRIZZLE   70  69  95 W13       29.68R

$$

NCZ045>047-081-094-103-104-240500-
CENTRAL COAST

CITY           SKY/WX    TMP DP  RH WIND       PRES   REMARKS
FRISCO         LGT RAIN  74  71  91 SW16G26   29.68F FOG

$$

NCZ095-097-098-100-101-240500-
SOUTHERN COAST

CITY           SKY/WX    TMP DP  RH WIND       PRES   REMARKS
BEAUFORT       LGT RAIN  73  71  93 S18       29.70F
CEDAR ISLAND   NOT AVBL
JACKSONVILLE   CLOUDY    70  70 100 SW3       29.68F
PINEY ISLAND   CLOUDY   N/A N/A N/A S13G18    29.68F
WILMINGTON     CLOUDY    70  69  97 S6        29.69F


$$

NCZ011>013-027>030-043-044-078>080-089-090>093-098-240500-
COASTAL PLAIN

CITY           SKY/WX    TMP DP  RH WIND       PRES   REMARKS
AHOSKIE          N/A     61  61  99 NE5       29.66F
CLINTON        LGT RAIN  68  68 100 CALM      29.69S
ELIZABETHTOWN  CLOUDY    69  69 100 S3        29.68F
GOLDSBORO      LGT RAIN  70  70 100 SW5       29.66F
GREENVILLE     CLOUDY    70  70 100 SW6       29.69F
HAVELOCK       CLOUDY    72  68  87 SW9       29.70F
KENANSVILLE    LGT RAIN  68  68 100 CALM      29.69R
KINSTON        CLOUDY    69  68  97 SW5       29.69R
NEW BERN       CLOUDY    69  69 100 SW6       29.69F
RICHLANDS      CLOUDY    69  68  96 S5        29.69F
ROCKY MOUNT    CLOUDY    65  65 100 N6        29.68S
WASHINGTON     CLOUDY    69  67  94 SW7       29.67F
WHITEVILLE     CLOUDY    68  67  95 S7        29.70R

$$

AMZ130-135-150-152-154-156-158-170-250-252-270-ANZ085-086-088-633-658-670-240500-
MARINE OBSERVATIONS

STATION/POSITION TIME  TEMP    WIND        PRES    WAVE   SWELL
                       AIR SEA DIR/SP/G            HT/PER HT/PER
                 (UTC) (F)     (DEG/KT/KT) (MB)    (FT/S) (FT/S)
CHESAPEAKE LIGHT NOT AVBL
64 E VA BEACH    0350   68 65  210/ 16/ 17 1004.2    5/ 7   3/12
DUCK             0348   71 62  230/ 16/ 20 1003.8
2 E DUCK         0400      65                N/A     3/ 7   2/12
OREGON INLET     0348          220/ 17/ 21   N/A
13E OREGON INLT  0348      65                N/A     6/ 7   2/12
HATTERAS CG      0348   74 74  210/ 14/ 21 1004.9
DIAMOND BUOY     0350   76 75  220/ 21/ 25 1005.4    6/ 7   2/12
CAPE LOOKOUT     0400   72     200/ 16/ 20 1005.7
BEAUFORT LAB     0348   73 73  200/ 17/ 20 1004.9
30 SE NEW RVR IN 0308   72 76  210/ 16/ 19 1006.7
30 SE NEW RVR IN 0343      76                N/A     6/ 7
27 SE WRIGHTSVLE 0308   72 75  200/ 14/ 19 1005.8
5 SE WRIGHTSVLE  0308   72 74  180/ 14/ 19 1005.6
225 S CAPE HAT   0350   77 76  190/ 21/ 25 1011.5    7/ 7   2/13
41 SE CHARLESTON 0350   79 77  220/ 21/ 25 1006.3    7/ 6

$$



USA.gov is the U.S. government's official web portal to all federal, state and local government web resources and services.